FW5813 Weather Reports


time (UTC)temp
F
wind
direction
speed
knots
gust
knots
rain 1hr
in
rain 24hr
in
rain mn
in
humidity
%
barometer
mb
20260905211610 66 324 2.6 5.2 0.00 0.07 0.07 65 1022.2
20260905210110 66 286 0.9 3.5 0.00 0.07 0.07 65 1021.7
20260905205610 66 15 1.7 4.3 0.00 0.07 0.07 66 1021.8
20260905204611 66 128 1.7 5.2 0.00 0.07 0.07 66 1021.5
20260905203610 66 0 1.7 3.5 0.00 0.07 0.07 66 1021.4
20260905203110 66 3 3.5 3.5 0.00 0.07 0.07 66 1021.5
20260905202609 66 323 0.9 4.3 0.00 0.07 0.07 65 1021.5
20260905201622 67 225 1.7 5.2 0.00 0.07 0.07 64 1021.3
20260905201110 67 236 1.7 5.2 0.00 0.07 0.07 63 1021.4
20260905200610 67 236 1.7 5.2 0.00 0.07 0.07 63 1021.5
20260905200115 67 277 2.6 5.2 0.00 0.07 0.07 62 1021.3
20260905195610 67 267 0.9 4.3 0.00 0.07 0.07 61 1021.4
20260905195110 67 235 3.5 4.3 0.00 0.07 0.07 60 1021.1
20260905194610 67 238 0.0 4.3 0.00 0.07 0.07 59 1021.2
20260905194110 67 214 0.0 4.3 0.00 0.07 0.07 58 1020.9
20260905193609 67 241 2.6 4.3 0.00 0.07 0.07 58 1021.0
20260905193110 67 253 0.9 3.5 0.00 0.07 0.07 57 1021.0
20260905192610 67 233 2.6 3.5 0.00 0.07 0.07 56 1021.0
20260905192112 67 225 0.9 2.6 0.00 0.07 0.07 56 1021.0
20260905191610 68 1 0.9 2.6 0.00 0.07 0.07 56 1020.9
20260905191110 68 242 0.0 2.6 0.00 0.07 0.07 55 1021.0
20260905190610 68 11 1.7 5.2 0.00 0.07 0.07 55 1020.8
20260905190110 68 187 0.9 5.2 0.00 0.07 0.07 54 1020.8
20260905185609 69 317 0.9 2.6 0.00 0.07 0.07 54 1020.6
20260905185110 69 284 2.6 3.5 0.00 0.07 0.07 53 1020.7
20260905184627 69 240 1.7 5.2 0.00 0.07 0.07 53 1020.8
20260905183611 69 212 1.7 3.5 0.00 0.07 0.07 52 1020.5
20260905183111 69 262 1.7 3.5 0.00 0.07 0.07 52 1020.4
20260905182610 69 24 0.9 3.5 0.00 0.07 0.07 52 1020.4
20260905181610 70 187 0.0 4.3 0.00 0.07 0.07 52 1020.1
20260905181110 70 247 0.9 4.3 0.00 0.07 0.07 52 1020.1
20260905180610 70 266 3.5 4.3 0.00 0.07 0.07 51 1020.3
20260905180110 70 235 0.9 3.5 0.00 0.07 0.07 51 1020.0
20260905175612 70 240 1.7 3.5 0.00 0.07 0.07 50 1019.9
20260905175110 71 314 1.7 3.5 0.00 0.07 0.07 50 1019.8
20260905174610 71 285 2.6 3.5 0.00 0.07 0.07 49 1019.7
20260905174110 71 257 1.7 6.1 0.00 0.07 0.07 49 1019.7
20260905173609 72 21 1.7 6.1 0.00 0.07 0.07 48 1019.6
20260905173110 72 301 2.6 6.1 0.00 0.07 0.07 48 1019.6
20260905172610 72 264 2.6 5.2 0.00 0.07 0.07 48 1019.7
20260905172123 72 308 2.6 5.2 0.00 0.07 0.07 48 1019.6
20260905171610 72 262 2.6 4.3 0.00 0.07 0.07 47 1019.6
20260905171110 72 256 2.6 3.5 0.00 0.07 0.07 47 1019.3
20260905170610 73 323 0.9 3.5 0.00 0.07 0.07 47 1019.4
20260905170116 73 263 1.7 3.5 0.00 0.07 0.07 47 1019.5
20260905165622 73 317 0.9 5.2 0.00 0.07 0.07 46 1019.7
20260905165109 74 351 0.9 7.8 0.00 0.07 0.07 46 1019.4
20260905164612 74 288 1.7 7.8 0.00 0.07 0.07 45 1019.5
20260905164110 75 260 3.5 9.6 0.00 0.07 0.07 44 1019.4
20260905163610 75 262 1.7 9.6 0.00 0.07 0.07 43 1019.4
20260905162610 76 23 2.6 7.8 0.00 0.07 0.07 42 1019.3
20260905162109 76 227 4.3 10.4 0.00 0.07 0.07 42 1019.4
20260905161610 76 329 4.3 10.4 0.00 0.07 0.07 42 1019.3
20260905161110 76 271 1.7 10.4 0.00 0.07 0.07 41 1019.0
20260905160610 76 242 4.3 10.4 0.00 0.07 0.07 42 1019.1
20260905155609 77 306 1.7 7.8 0.00 0.07 0.07 42 1019.2
20260905155111 77 226 2.6 7.8 0.00 0.07 0.07 43 1019.3
20260905154610 77 10 1.7 11.3 0.00 0.07 0.07 42 1018.9
20260905154110 77 343 1.7 11.3 0.00 0.07 0.07 43 1019.1
20260905153611 77 218 3.5 13.0 0.00 0.07 0.07 42 1019.2
20260905153110 77 216 0.0 13.0 0.00 0.07 0.07 43 1018.9
20260905152610 77 299 3.5 9.6 0.00 0.07 0.07 42 1018.9
20260905152110 77 348 1.7 9.6 0.00 0.07 0.07 42 1019.1
20260905151610 78 39 2.6 7.8 0.00 0.07 0.07 41 1018.9
20260905151111 78 236 2.6 7.8 0.00 0.07 0.07 41 1019.1
20260905150610 78 331 1.7 12.2 0.00 0.07 0.07 42 1019.1
20260905150111 77 344 3.5 12.2 0.00 0.07 0.07 43 1019.0
20260905145610 78 221 4.3 7.0 0.00 0.07 0.07 42 1018.9
20260905145110 78 260 3.5 8.7 0.00 0.07 0.07 42 1018.9
20260905144610 77 296 5.2 8.7 0.00 0.07 0.07 43 1018.9
20260905143610 77 267 5.2 9.6 0.00 0.07 0.07 42 1018.8
20260905143112 77 280 3.5 11.3 0.00 0.07 0.07 42 1018.7
20260905142610 77 274 6.1 11.3 0.00 0.07 0.07 43 1019.1
20260905142110 78 340 4.3 11.3 0.00 0.07 0.07 43 1018.8
20260905141610 77 229 2.6 11.3 0.00 0.07 0.07 43 1018.7
20260905141122 78 328 3.5 9.6 0.00 0.07 0.07 42 1018.8
20260905140118 78 277 3.5 10.4 0.00 0.07 0.07 41 1018.8
20260905135610 78 250 5.2 14.8 0.00 0.07 0.07 42 1019.0
20260905135110 78 320 3.5 14.8 0.00 0.07 0.07 43 1018.8
20260905134610 78 237 5.2 13.0 0.00 0.07 0.07 42 1018.9
20260905134110 78 316 7.0 13.0 0.00 0.07 0.07 43 1019.1
20260905133611 78 243 5.2 11.3 0.00 0.07 0.07 43 1019.0
20260905132611 78 337 5.2 10.4 0.00 0.07 0.07 43 1019.3
20260905132110 79 315 1.7 10.4 0.00 0.07 0.07 43 1019.4
20260905131610 79 211 2.6 8.7 0.00 0.07 0.07 42 1019.1
20260905131110 78 269 2.6 7.8 0.00 0.07 0.07 44 1019.1
20260905130116 78 266 2.6 7.8 0.00 0.07 0.07 42 1019.3
20260905125611 78 307 3.5 8.7 0.00 0.07 0.07 45 1019.3
20260905125110 78 287 0.9 8.7 0.00 0.07 0.07 45 1019.5
20260905124111 78 280 3.5 9.6 0.00 0.07 0.07 44 1019.5
20260905123610 78 280 2.6 9.6 0.00 0.07 0.07 44 1019.5
20260905123110 78 262 1.7 10.4 0.00 0.07 0.07 44 1019.0
20260905122111 78 293 4.3 9.6 0.00 0.07 0.07 44 1019.4
20260905121610 79 337 7.8 9.6 0.00 0.07 0.07 42 1019.3
20260905120611 78 269 5.2 10.4 0.00 0.07 0.07 44 1019.4
20260905120115 79 299 4.3 10.4 0.00 0.07 0.07 45 1019.2
20260905115610 78 359 2.6 9.6 0.00 0.07 0.07 46 1019.3
20260905115110 78 3 7.0 11.3 0.00 0.07 0.07 47 1019.4
20260905114612 77 241 2.6 11.3 0.00 0.07 0.07 47 1019.4
20260905114111 78 287 5.2 10.4 0.00 0.07 0.07 46 1019.3
20260905113610 77 260 0.0 11.3 0.00 0.07 0.07 49 1019.5
20260905113110 76 288 4.3 11.3 0.00 0.07 0.07 50 1019.3
20260905112610 77 316 6.1 8.7 0.00 0.07 0.07 49 1019.4
20260905111609 75 293 3.5 7.0 0.00 0.07 0.07 53 1019.6
20260905111110 76 7 5.2 6.1 0.00 0.07 0.07 56 1019.6
20260905110610 75 229 0.0 6.1 0.00 0.07 0.07 58 1019.6
20260905110118 76 37 1.7 6.1 0.00 0.07 0.07 57 1019.5
20260905105610 76 262 2.6 7.8 0.00 0.07 0.07 59 1019.5
20260905104622 74 205 2.6 7.8 0.00 0.07 0.07 66 1019.7
20260905104112 74 291 1.7 7.8 0.00 0.07 0.07 66 1019.7
20260905103110 72 67 1.7 10.4 0.00 0.07 0.07 72 1019.6
20260905102110 73 244 5.2 8.7 0.00 0.07 0.07 68 1019.8
20260905101611 73 207 3.5 10.4 0.00 0.07 0.07 69 1020.1
20260905101110 72 194 2.6 10.4 0.00 0.07 0.07 71 1019.7
20260905100610 71 188 2.6 9.6 0.00 0.07 0.07 72 1019.9
20260905100112 70 321 3.5 12.2 0.00 0.07 0.07 74 1019.8
20260905095610 69 254 7.0 12.2 0.00 0.07 0.07 75 1020.0
20260905094610 68 253 1.7 11.3 0.00 0.07 0.07 77 1020.1
20260905094111 67 222 2.6 13.0 0.00 0.07 0.07 80 1020.1
20260905093111 66 19 0.9 8.7 0.00 0.07 0.07 82 1020.0
20260905092610 65 232 1.7 8.7 0.00 0.07 0.07 83 1020.1
20260905092110 64 231 2.6 12.2 0.00 0.07 0.07 84 1020.2
20260905091110 63 224 1.7 11.3 0.01 0.07 0.07 87 1020.2
20260905090610 63 223 5.2 9.6 0.01 0.07 0.07 87 1019.9
20260905090115 62 236 5.2 8.7 0.01 0.07 0.07 88 1020.2
20260905085110 61 230 7.0 10.4 0.01 0.07 0.07 89 1020.2
20260905084110 61 208 1.7 13.0 0.01 0.07 0.07 91 1019.9
20260905083611 60 242 9.6 13.0 0.01 0.07 0.07 91 1020.0
20260905082610 60 241 7.0 14.8 0.02 0.07 0.07 92 1020.1
20260905082123 60 204 3.5 11.3 0.02 0.07 0.07 91 1020.1
20260905081110 60 242 5.2 17.4 0.01 0.06 0.06 90 1019.9
20260905080611 60 236 4.3 17.4 0.01 0.06 0.06 90 1019.7
20260905075610 60 198 2.6 13.9 0.01 0.06 0.06 89 1019.7
20260905075111 60 248 7.8 13.0 0.01 0.06 0.06 89 1019.6
20260905074610 61 295 1.7 8.7 0.01 0.06 0.06 91 1019.6
20260905074110 60 241 5.2 7.0 0.01 0.06 0.06 90 1019.5
20260905073610 61 230 3.5 7.8 0.01 0.06 0.06 89 1019.7
20260905072611 61 232 1.7 5.2 0.01 0.05 0.05 84 1019.9
20260905071611 62 180 1.7 3.5 0.01 0.05 0.05 82 1020.0
20260905071110 62 222 0.9 2.6 0.01 0.05 0.05 83 1020.0
20260905070611 62 0 0.9 5.2 0.01 0.05 0.05 83 1019.8
20260905065110 61 110 1.7 6.1 0.01 0.05 0.05 83 1019.5
20260905064111 61 70 0.9 7.0 0.01 0.05 0.05 82 1019.2
20260905063610 62 8 3.5 7.0 0.01 0.05 0.05 82 1019.7
20260905063110 61 344 1.7 3.5 0.02 0.04 0.04 84 1019.8
20260905062610 61 213 1.7 3.5 0.03 0.04 0.04 86 1020.3
20260905062110 61 304 0.0 2.6 0.04 0.04 0.04 88 1019.5
20260905061611 61 24 1.7 2.6 0.04 0.04 0.04 87 1019.1
20260905061110 60 4 0.9 1.7 0.04 0.04 0.04 86 1019.2
20260905060610 61 269 0.0 1.7 0.04 0.04 0.04 86 1019.1
20260905060117 61 22 0.9 1.7 0.04 0.04 0.04 85 1019.0
20260905055610 61 79 1.7 3.5 0.04 0.04 0.04 83 1019.2
20260905055111 61 80 0.0 4.3 0.04 0.04 0.04 83 1019.2
20260905054610 61 33 0.0 5.2 0.04 0.04 0.04 82 1019.5
20260905054110 61 4 2.6 5.2 0.04 0.04 0.04 81 1019.0
20260905053611 62 29 2.6 5.2 0.04 0.04 0.04 79 1019.4
20260905053110 63 60 0.9 7.0 0.02 0.02 0.03 76 1019.4
20260905052610 64 1 2.6 7.0 0.01 0.01 0.01 71 1019.4
20260905052110 65 338 2.6 7.0 0.00 0.00 0.00 66 1019.3
20260905051610 66 23 2.6 5.2 0.00 0.00 0.00 60 1018.7
20260905051110 66 7 3.5 5.2 0.00 0.00 0.00 60 1018.4
20260905050610 66 4 1.7 7.8 0.00 0.00 0.00 60 1018.1
20260905050110 66 4 2.6 9.6 0.00 0.00 0.00 59 1017.7
20260905045111 67 351 5.2 11.3 0.00 0.00 0.00 56 1018.1
20260905044610 67 0 5.2 11.3 0.00 0.00 0.00 56 1017.9
20260905044111 67 0 2.6 6.1 0.00 0.00 0.00 55 1017.7
20260905043610 67 341 1.7 7.8 0.00 0.00 0.00 55 1017.7
20260905043110 67 15 1.7 9.6 0.00 0.00 0.00 55 1017.6
20260905042110 67 15 2.6 13.9 0.00 0.00 0.00 53 1017.4
20260905041610 68 359 3.5 13.9 0.00 0.00 0.00 53 1017.1
20260905041110 68 13 3.5 13.9 0.00 0.00 0.00 55 1017.2
20260905040611 67 12 6.1 7.8 0.00 0.00 0.00 57 1017.3
20260905040118 67 357 3.5 9.6 0.00 0.00 0.00 57 1016.9
20260905035610 67 3 0.9 9.6 0.00 0.00 0.00 59 1016.8
20260905035110 67 357 1.7 6.1 0.00 0.00 0.00 58 1016.7
20260905034611 67 321 2.6 6.1 0.00 0.00 0.00 59 1016.7
20260905034110 67 52 1.7 7.8 0.00 0.00 0.00 60 1016.5
20260905033110 68 10 2.6 9.6 0.00 0.00 0.00 60 1016.6
20260905032615 68 2 2.6 9.6 0.00 0.00 0.00 60 1016.6
20260905032110 68 331 5.2 8.7 0.00 0.00 0.00 60 1016.7
20260905031110 68 345 2.6 9.6 0.00 0.00 0.00 60 1016.0
20260905030123 69 335 3.5 9.6 0.00 0.00 0.00 59 1015.6
20260905025623 69 351 3.5 12.2 0.00 0.00 0.00 59 1015.4
20260905025111 69 8 6.1 12.2 0.00 0.00 0.00 58 1015.3
20260905024610 69 353 2.6 13.0 0.00 0.00 0.00 59 1015.3
20260905024110 69 354 6.1 13.0 0.00 0.00 0.00 59 1015.3
20260905023111 70 21 4.3 12.2 0.00 0.00 0.00 62 1015.1
20260905022610 71 358 7.0 15.6 0.00 0.00 0.00 62 1014.9
20260905022110 71 13 5.2 15.6 0.00 0.00 0.00 62 1014.6
20260905020610 74 357 7.0 20.9 0.00 0.00 0.00 59 1014.2
20260905015610 77 198 0.9 4.3 0.00 0.00 0.00 52 1013.0
20260905015111 77 341 1.7 5.2 0.00 0.00 0.00 54 1013.1
20260905014610 78 255 0.0 5.2 0.00 0.00 0.00 51 1012.9
20260905014109 78 245 1.7 4.3 0.00 0.00 0.00 50 1013.2
20260905013610 78 221 0.9 4.3 0.00 0.00 0.00 49 1013.0
20260905013111 78 321 1.7 3.5 0.00 0.00 0.00 49 1013.1
20260905012610 78 264 0.9 3.5 0.00 0.00 0.00 49 1012.7
20260905012110 78 285 1.7 3.5 0.00 0.00 0.00 49 1012.7
20260905011110 78 289 0.9 4.3 0.00 0.00 0.00 48 1012.8
20260905010116 78 236 1.7 4.3 0.00 0.00 0.00 48 1012.9
20260905005110 78 257 1.7 3.5 0.00 0.00 0.00 47 1012.4
20260905004610 79 227 0.9 3.5 0.00 0.00 0.00 47 1012.8
20260905003610 79 239 0.9 5.2 0.00 0.00 0.00 46 1012.7
20260905003110 79 225 0.9 5.2 0.00 0.00 0.00 46 1012.5
20260905002610 79 212 1.7 4.3 0.00 0.00 0.00 46 1012.5
20260905002110 79 241 2.6 4.3 0.00 0.00 0.00 46 1012.8
20260905001610 78 229 2.6 4.3 0.00 0.00 0.00 46 1012.8
20260905001110 78 273 0.9 3.5 0.00 0.00 0.00 47 1012.5
20260905000115 79 278 1.7 4.3 0.00 0.00 0.00 46 1012.6
20260904235110 79 279 1.7 6.1 0.00 0.00 0.00 46 1012.3
20260904234611 79 247 2.6 4.3 0.00 0.00 0.00 45 1012.5
20260904234110 79 258 1.7 4.3 0.00 0.00 0.00 45 1012.6
20260904233610 79 341 1.7 7.0 0.00 0.00 0.00 45 1012.4
20260904233109 79 346 2.6 7.0 0.00 0.00 0.00 45 1012.3
20260904232610 79 273 0.9 5.2 0.00 0.00 0.00 45 1012.4
20260904232110 79 216 1.7 5.2 0.00 0.00 0.00 45 1012.3
20260904231610 79 232 2.6 7.0 0.00 0.00 0.00 45 1012.2
20260904231110 79 236 1.7 7.0 0.00 0.00 0.00 45 1012.2
20260904230610 79 244 4.3 6.1 0.00 0.00 0.00 45 1012.1
20260904230115 79 239 3.5 7.0 0.00 0.00 0.00 45 1012.2
20260904225610 79 266 1.7 7.0 0.00 0.00 0.00 45 1012.0
20260904225110 78 283 0.9 8.7 0.00 0.00 0.00 46 1012.0
20260904224611 79 253 1.7 8.7 0.00 0.00 0.00 45 1012.0
20260904223610 78 241 2.6 7.8 0.00 0.00 0.00 46 1011.8
20260904223109 78 229 3.5 7.8 0.00 0.00 0.00 46 1011.9
20260904221110 77 205 3.5 6.1 0.00 0.00 0.00 47 1011.8
20260904220610 77 220 4.3 6.1 0.00 0.00 0.00 47 1011.7
20260904220116 76 244 3.5 6.1 0.00 0.00 0.00 47 1012.0
20260904215611 76 218 1.7 5.2 0.00 0.00 0.00 48 1011.7
20260904214611 75 242 2.6 4.3 0.00 0.00 0.00 49 1011.9
20260904214110 75 237 3.5 4.3 0.00 0.00 0.00 49 1012.0
20260904213111 74 232 0.9 4.3 0.00 0.00 0.00 50 1012.0
20260904212610 74 224 0.9 4.3 0.00 0.00 0.00 51 1011.9
20260904212110 73 199 1.7 3.5 0.00 0.00 0.00 51 1011.9